Theta_e
313 313 312 312 311 311 311 311 310 310 309 310 312 312 313 312 308 311 316 316 316 310 307 314 311 311 314 316 317 317 320 320 321 322 323 323 324 324 324 324 327 329 332 333 343
309 310 310 309 309 310 310 310 310 310 310 311 311 311 312 313 311 314 316 315 312 311 307 313 312 312 315 316 317 320 320 321 322 323 323 323 323 322 324 324 325 328 331 331 338
308 308 308 309 310 309 307 308 309 310 310 310 310 311 312 312 316 319 317 314 312 312 310 311 312 313 315 316 318 318 319 320 320 320 320 321 321 321 322 323 324 325 328 331 341
306 306 307 307 307 307 307 306 308 310 310 310 310 311 312 312 322 319 318 315 314 310 312 312 312 312 316 318 318 319 319 319 320 319 319 320 319 319 320 321 321 322 327 331 330
306 305 305 305 306 306 307 307 307 308 308 309 310 310 312 316 318 318 316 310 311 308 316 315 315 313 316 317 317 319 319 318 318 318 318 318 318 319 319 319 320 320 325 329 329
305 305 305 305 306 305 305 307 307 306 308 309 311 311 312 318 319 319 316 311 312 316 315 315 316 315 316 317 317 317 317 318 317 317 317 318 318 318 318 318 318 319 320 323 327
307 306 305 304 304 305 304 304 306 306 307 311 312 311 313 317 318 318 318 317 318 318 316 316 316 315 315 317 316 316 317 318 318 317 318 317 318 318 317 317 318 317 318 319 322
307 306 305 305 304 303 303 303 303 305 307 313 311 311 315 318 318 319 318 318 318 318 317 316 316 314 315 316 317 317 318 318 320 319 319 318 318 320 318 318 317 318 318 318 320
305 305 305 304 304 304 303 302 302 304 311 312 312 312 319 319 317 319 320 319 318 319 317 314 314 313 315 317 319 320 319 320 320 321 321 320 320 321 320 319 318 317 317 318 319
305 304 303 303 303 303 303 303 306 311 313 312 314 315 317 318 319 317 320 320 319 317 314 312 313 315 317 318 319 320 319 320 320 322 322 322 321 321 321 321 319 318 317 318 318
304 302 301 302 301 301 302 308 315 315 312 319 318 318 319 319 317 316 319 318 317 314 316 313 314 315 317 318 319 321 322 320 321 322 322 323 323 323 323 322 321 320 318 318 318
304 304 303 301 301 301 302 311 313 316 317 318 318 319 319 319 319 317 317 318 317 316 316 315 315 316 318 319 319 320 321 321 322 322 323 323 323 324 324 323 321 320 320 319 318
305 304 303 301 301 311 312 311 310 314 319 317 317 319 319 319 319 320 316 317 319 317 316 316 316 316 318 319 320 320 321 321 321 323 323 323 323 323 324 322 321 320 320 320 320
304 304 303 302 308 311 308 311 312 316 320 317 319 319 319 319 321 319 317 317 318 318 316 316 317 317 319 320 320 321 320 320 321 322 323 325 325 325 325 323 322 322 323 323 323
302 302 302 302 304 307 309 309 311 318 320 317 321 320 319 320 320 319 318 317 319 317 316 317 318 319 319 319 320 320 320 320 320 322 322 323 325 324 325 324 323 323 323 324 323
301 301 300 305 308 308 310 309 311 318 317 317 321 323 322 321 321 320 319 317 317 319 319 319 319 320 320 320 320 320 320 321 321 321 323 323 325 324 325 325 324 324 323 323 323
303 302 302 307 309 309 311 309 312 314 314 316 317 321 324 323 322 321 322 322 319 320 320 319 320 320 320 320 320 320 321 323 322 322 322 323 324 324 326 324 325 325 323 323 325
304 304 308 310 310 310 311 313 313 311 313 315 316 323 323 324 323 321 324 323 319 319 318 319 320 320 319 320 320 320 321 323 322 322 321 322 325 324 325 325 324 325 325 325 326
302 308 309 311 312 311 312 315 314 313 313 313 314 316 317 320 323 322 323 323 322 319 319 321 321 319 320 319 321 321 322 322 323 323 324 325 324 327 326 325 324 326 326 328 328
305 309 309 311 312 312 314 313 312 312 312 313 315 318 321 319 323 322 323 322 321 320 319 320 322 320 319 319 320 321 322 324 322 325 328 327 327 326 326 325 324 325 326 328 329
307 308 314 313 312 312 316 313 313 313 312 312 314 316 318 322 320 320 323 322 320 319 318 320 322 321 320 320 320 321 322 323 323 323 326 329 326 326 328 325 325 325 326 327 327
306 310 310 311 313 314 316 314 314 317 315 316 316 315 319 320 321 319 321 323 322 321 318 320 322 324 321 320 320 322 322 324 326 327 327 325 326 325 325 326 326 325 327 326 325
306 307 309 310 314 316 315 314 314 317 316 317 319 319 318 320 322 320 320 318 320 324 322 323 322 330 327 325 323 323 324 322 324 328 327 330 327 325 325 325 325 325 325 325 324
306 310 309 311 312 311 313 313 314 314 314 313 317 318 320 322 320 321 320 315 318 324 323 325 322 324 329 327 325 323 326 326 326 327 328 325 324 325 324 324 324 324 324 324 323
306 309 308 311 310 311 311 313 313 316 312 312 317 318 319 320 320 320 320 320 319 324 323 324 324 325 325 325 326 325 322 323 325 324 326 325 326 325 326 325 324 323 323 322 321
305 305 304 305 308 310 311 314 314 313 313 315 315 317 318 316 320 316 320 320 321 324 325 325 327 328 328 325 324 325 325 325 325 325 324 323 324 324 323 323 322 322 322 321 320
302 303 303 305 308 309 311 309 311 312 313 313 314 317 316 314 318 318 317 318 318 322 326 327 328 329 327 323 323 328 323 322 324 324 322 322 321 323 322 322 322 322 321 320 320
Wind_Speed
16 17 18 19 19 19 19 20 20 19 19 20 19 19 22 22 21 21 23 19 13 18 12 8 15 18 17 20 23 21 16 19 24 22 18 22 10 14 20 27 11 13 16 5 2
17 18 19 19 20 20 20 21 20 21 20 21 21 21 20 21 24 28 25 25 17 16 19 17 19 20 23 21 23 17 15 25 19 17 16 13 15 15 16 15 18 22 12 11 9
17 17 18 19 18 20 21 21 21 21 21 22 22 22 20 16 22 21 12 16 18 20 17 18 16 21 24 21 25 23 21 17 21 13 13 14 16 13 17 17 17 18 17 11 12
17 17 18 18 18 19 19 21 22 22 22 23 24 22 19 8 8 1 7 11 14 22 18 20 19 24 21 23 23 21 22 25 23 8 16 17 19 20 20 21 20 19 18 3 8
19 19 20 20 21 20 21 22 22 23 25 25 24 22 14 13 26 21 17 6 19 25 20 22 23 24 22 20 22 22 21 19 23 21 18 18 20 20 22 21 21 23 15 16 14
21 21 22 21 21 22 22 22 23 25 25 26 20 15 11 23 15 18 11 10 18 22 20 21 17 22 20 21 17 20 20 24 20 20 22 22 21 23 25 23 22 23 25 20 17
21 21 22 22 24 25 25 24 25 24 26 19 14 12 16 30 10 13 15 18 19 20 19 19 18 15 16 17 19 21 13 16 19 21 19 18 21 23 24 24 27 26 29 27 26
23 23 23 23 25 26 26 25 25 25 24 16 10 9 15 8 26 14 17 20 21 19 19 15 17 16 21 14 6 16 18 18 21 22 21 17 18 17 20 24 28 30 26 29 29
23 24 25 25 25 27 27 24 24 22 16 7 5 9 14 10 19 27 20 23 22 19 18 15 18 19 20 17 13 16 18 21 20 10 12 16 15 14 15 17 19 28 27 31 32
26 25 25 27 26 26 28 24 16 5 1 5 6 7 19 18 15 22 24 21 22 20 18 17 17 16 18 16 17 20 19 20 17 16 11 14 18 14 17 13 16 21 26 29 34
30 28 25 28 28 28 28 15 6 6 13 15 15 15 11 7 11 22 27 22 24 23 17 25 18 21 25 23 22 20 19 19 15 12 7 12 14 16 15 15 14 17 24 26 32
29 31 32 30 29 29 21 7 12 12 19 26 31 30 28 11 14 19 30 26 23 21 23 16 23 24 23 23 21 20 13 10 8 10 8 12 14 14 12 9 13 17 18 25 30
31 32 33 30 27 15 6 19 20 17 12 26 32 38 37 33 25 26 36 36 23 25 26 21 19 26 23 19 19 18 17 16 14 15 13 13 17 18 15 10 11 11 17 20 25
31 33 32 31 15 10 22 9 7 12 10 19 24 21 37 30 35 27 37 40 18 26 26 24 24 25 19 21 18 18 18 15 12 11 12 11 13 10 12 11 11 15 16 19 21
33 33 32 30 25 19 11 11 10 8 8 8 13 5 11 35 12 39 36 41 25 22 21 25 24 16 23 20 19 16 12 15 16 15 15 17 9 10 10 11 13 15 19 17 17
32 31 33 25 17 23 17 11 7 8 14 7 12 12 16 28 35 32 38 39 36 23 23 25 25 19 16 19 18 14 13 11 12 13 15 19 15 12 6 8 10 15 19 18 11
34 32 29 17 15 6 6 12 8 12 8 17 23 17 20 19 26 22 30 29 28 26 23 23 26 20 17 20 18 15 11 10 12 13 14 18 16 5 12 4 4 4 15 12 8
35 34 21 16 17 12 8 12 19 12 27 22 18 10 14 22 24 27 29 25 32 25 17 20 23 24 16 21 22 23 18 12 17 14 15 19 10 3 14 9 7 8 7 11 14
36 24 19 12 7 9 13 14 20 25 26 28 20 25 22 10 8 11 25 27 30 30 25 19 24 26 22 19 20 19 20 18 19 13 9 8 9 13 13 10 10 12 12 13 14
30 26 20 7 8 11 12 22 26 26 26 24 25 12 26 13 12 6 13 24 26 31 24 23 17 21 24 21 22 21 19 17 12 13 15 12 13 11 19 16 12 12 11 13 17
20 16 1 1 3 8 10 21 23 25 25 24 25 19 19 8 1 8 8 17 21 26 26 23 12 17 15 19 23 18 16 14 13 13 10 10 8 13 9 6 12 12 15 16 18
16 9 0 5 5 7 11 14 19 21 23 21 18 10 28 3 4 9 7 10 21 18 26 20 12 9 24 20 23 21 20 18 10 11 10 11 2 10 7 7 11 15 20 15 18
14 26 13 9 6 10 12 16 24 20 15 20 8 19 16 13 11 13 8 8 14 32 26 24 11 12 2 10 11 16 16 19 11 4 10 6 4 11 10 4 7 12 21 20 16
10 6 11 8 11 5 17 19 14 9 11 19 12 17 11 14 10 8 12 3 24 21 14 24 17 17 12 6 16 19 19 24 11 2 10 10 15 10 13 11 4 5 13 14 12
7 5 9 7 16 20 19 21 17 10 5 7 8 16 5 6 7 11 14 16 14 13 8 15 20 15 6 10 4 8 18 7 15 8 9 8 17 14 20 15 10 10 12 15 14
8 6 7 18 21 20 14 13 14 17 6 9 12 7 9 4 9 5 5 6 2 5 8 3 12 11 14 14 7 5 9 9 11 13 13 12 5 13 12 6 8 13 16 15 13
14 18 11 10 14 14 11 12 18 17 4 6 8 10 8 9 3 9 18 12 4 5 7 8 8 12 9 9 6 10 15 15 13 14 9 11 9 8 6 8 11 14 9 8 8
Wind_Direction
322 321 320 318 316 314 311 309 306 302 300 299 297 297 299 298 293 290 267 241 237 237 221 209 208 214 218 226 219 223 245 241 243 245 248 254 239 232 253 249 248 244 228 309 329
324 320 317 317 315 314 313 310 307 303 300 298 297 296 297 299 296 281 266 253 240 239 209 200 200 203 214 219 211 224 228 242 245 257 262 249 250 252 245 236 236 243 222 249 237
327 324 322 321 319 317 316 313 308 304 300 298 296 296 296 305 304 268 249 243 221 220 194 210 204 205 220 218 211 220 241 242 246 260 274 281 263 248 247 248 231 225 231 207 220
330 327 322 318 315 313 312 311 309 305 302 298 296 294 291 286 263 187 268 257 219 197 186 208 215 206 223 225 228 231 240 245 262 244 240 256 262 261 249 250 254 244 239 228 235
330 327 324 319 316 312 310 311 308 304 303 300 295 292 291 245 245 275 277 249 182 181 189 203 214 211 221 231 226 232 239 238 244 253 247 250 250 255 249 247 246 252 232 224 249
328 327 325 320 315 311 308 306 305 306 304 300 292 277 251 257 256 232 229 198 179 180 194 203 214 219 233 242 230 238 237 253 246 243 245 249 254 251 245 245 243 246 251 239 240
331 329 326 321 317 315 313 311 309 308 308 299 285 257 243 239 234 225 202 196 189 194 202 209 218 235 231 253 240 239 250 245 243 241 243 251 256 254 257 250 236 235 241 242 237
324 322 321 319 316 315 315 315 313 308 303 292 254 217 250 264 231 223 213 206 204 206 211 218 221 236 236 233 224 228 232 247 231 216 228 227 255 254 240 238 239 235 236 237 230
322 322 322 319 316 314 313 316 309 303 294 274 173 209 266 260 224 218 210 203 200 206 210 218 216 222 216 240 227 217 234 222 243 178 218 197 248 245 248 241 237 237 229 240 226
325 324 321 319 317 315 312 316 313 261 245 167 228 216 245 241 231 208 198 198 196 193 194 199 203 214 220 211 223 215 217 251 214 173 190 234 234 255 266 239 240 239 231 235 226
328 326 324 320 317 316 314 324 260 211 210 216 209 218 298 209 178 197 190 190 190 193 194 197 202 209 207 215 230 239 228 223 205 223 208 247 260 258 258 252 239 234 231 234 227
324 327 326 322 322 317 306 249 288 299 291 246 248 246 248 236 197 199 189 190 195 203 206 182 213 213 224 215 228 248 245 227 241 236 233 270 260 260 256 250 246 246 233 232 219
319 321 323 320 328 331 292 280 282 288 267 268 246 238 235 223 226 193 191 200 200 206 207 207 213 221 212 218 215 228 226 226 240 211 213 267 260 247 239 227 219 245 227 216 203
320 323 326 324 332 301 304 319 303 279 272 270 222 240 229 216 226 219 198 199 198 212 211 221 231 196 209 218 208 217 219 246 248 253 251 275 253 194 211 188 209 212 220 222 194
324 326 326 326 298 300 288 309 286 279 274 312 126 192 207 198 178 211 191 204 215 212 219 212 233 201 207 210 208 229 212 222 224 231 256 255 235 287 166 199 198 212 213 220 221
327 324 324 316 283 283 284 278 280 235 249 250 157 198 209 202 224 190 186 209 218 221 222 226 210 213 207 210 212 218 230 238 244 242 237 243 252 235 174 230 192 191 207 212 209
325 325 314 289 268 278 268 220 231 237 280 237 244 219 207 194 211 225 188 193 210 215 222 213 235 204 219 213 195 205 214 213 212 219 235 232 226 226 155 235 110 235 181 185 190
324 323 322 289 281 283 246 222 240 255 242 268 294 238 178 269 196 218 186 197 210 211 216 217 214 206 204 220 209 211 209 230 209 210 225 224 227 247 141 109 105 115 157 164 176
328 325 302 283 237 216 222 236 246 246 261 278 270 278 262 256 149 339 196 207 203 214 218 206 225 199 202 217 227 192 214 231 264 294 266 328 228 126 157 176 155 142 153 161 151
325 318 296 208 245 216 235 249 268 275 273 270 272 175 275 284 171 196 261 212 208 203 218 234 220 215 194 209 215 240 204 208 234 238 253 178 223 273 170 170 173 156 165 148 143
328 310 168 172 179 205 242 258 259 257 247 259 276 285 267 162 74 250 269 269 232 205 215 226 263 208 194 200 206 202 220 233 229 232 234 261 213 94 9 178 159 165 153 157 145
316 287 263 255 258 222 253 307 293 300 299 299 295 179 262 174 149 213 231 269 315 255 214 220 234 215 205 189 219 200 208 223 200 218 276 267 139 297 150 289 172 154 144 158 162
304 293 281 226 263 298 293 301 295 328 303 297 296 306 271 174 198 197 220 257 303 285 200 207 212 187 62 283 212 194 222 224 225 16 204 235 148 354 0 319 169 153 151 158 154
290 295 347 271 302 326 308 309 307 16 342 350 292 284 236 258 209 173 220 241 263 281 327 202 210 218 205 168 191 207 187 199 169 116 229 223 249 235 272 263 276 207 148 134 159
282 311 11 316 325 315 316 301 324 349 338 301 283 234 305 266 184 229 222 199 264 318 237 207 209 225 93 160 119 232 224 216 248 222 255 239 192 223 245 189 166 135 153 145 148
309 339 308 301 313 314 313 344 343 325 333 344 317 311 292 252 209 144 293 174 201 257 206 124 197 253 138 176 174 236 225 244 232 251 256 258 188 280 155 113 108 155 170 168 166
323 323 294 297 309 308 318 305 310 316 333 211 302 305 41 338 298 155 182 188 176 274 164 175 163 196 198 170 168 220 220 223 236 216 237 250 249 209 197 163 149 176 173 175 159